Vancouver, WA
on Thursday, December 13, 2012

Thursday
Previous Day Next Day
Daily Summary
 ActualAverageRecord
Temperature
Mean Temperature °F 40°F  
Max Temperature 47°F 47°F 58°F (2010)
Min Temperature 39°F 34°F -10°F (1919)
Degree Days
Heating Degree Days 22    
Month to date heating degree days 248  
Since 1 July heating degree days 1070  
Cooling Degree Days 0    
Month to date cooling degree days 0  
Year to date cooling degree days 398  
Moisture
Dew Point 37°F   
Average Humidity 77    
Maximum Humidity 89    
Minimum Humidity 65    
Precipitation
Precipitation T in 0.22 in 1.86 in (1977)
Month to date precipitation 2.82 2.67  
Year to date precipitation 41.14 35.04  
Snow
Snow 0.00 in in in ()
Month to date snowfall 0.0  
Snow Depth 0.00 in   
Wind
Wind Speed 3 mph   
Max Wind Speed 8 mph   
Max Gust Speed 10 mph   
Visibility 10 miles   
Events Rain   

Key: T is trace of precipitation, MM is missing value
Source: NWS Daily Summary
Time(PST)TemperatureDew PointHumidity Pressure Visibility Wind DirectionWind SpeedGust SpeedPrecipitationEvents Conditions
12:53 AM 43.0°F 39.9°F 89% 30.03 in 10.0 miles Calm Calm - N/A   Overcast
1:53 AM 42.1°F 39.0°F 89% 30.04 in 10.0 miles Calm Calm - N/A   Overcast
2:53 AM 42.1°F 39.9°F 92% 30.04 in 10.0 miles Calm Calm - N/A   Overcast
3:53 AM 42.1°F 39.0°F 89% 30.04 in 10.0 miles Calm Calm - N/A   Overcast
4:17 AM 42.8°F 39.2°F 87% 30.04 in 10.0 miles Calm Calm - N/A   Overcast
4:39 AM 42.8°F 39.2°F 87% 30.04 in 10.0 miles East 3.5 mph - N/A   Overcast
4:53 AM 42.1°F 39.0°F 89% 30.05 in 10.0 miles East 3.5 mph - N/A   Overcast
5:03 AM 42.8°F 39.2°F 87% 30.05 in 10.0 miles East 4.6 mph - N/A   Overcast
5:53 AM 42.1°F 39.0°F 89% 30.05 in 10.0 miles Calm Calm - N/A   Overcast
6:53 AM 42.1°F 37.9°F 85% 30.04 in 10.0 miles East 3.5 mph - N/A   Overcast
7:53 AM 42.1°F 37.9°F 85% 30.06 in 10.0 miles Calm Calm - N/A   Overcast
8:53 AM 42.1°F 36.0°F 79% 30.05 in - SE 4.6 mph - N/A   Overcast
9:53 AM 42.1°F 35.1°F 76% 30.04 in 10.0 miles SSE 3.5 mph - N/A   Partly Cloudy
10:53 AM 44.1°F 37.0°F 76% 30.02 in 10.0 miles ESE 8.1 mph - N/A   Unknown
11:53 AM 45.0°F 36.0°F 71% 30.00 in 10.0 miles ESE 5.8 mph - N/A   Clear
12:53 PM 46.0°F 36.0°F 68% 29.97 in 10.0 miles Calm Calm - N/A   Clear
1:53 PM 46.0°F 35.1°F 66% 29.94 in 10.0 miles SSW 3.5 mph - N/A   Clear
5:53 PM 39.9°F 35.1°F 83% 29.90 in 10.0 miles SE 3.5 mph - N/A   Clear
6:53 PM 39.9°F 35.1°F 83% 29.88 in 10.0 miles SE 6.9 mph - N/A   Clear
7:10 PM 39.2°F 35.6°F 87% 29.88 in 10.0 miles South 5.8 mph - N/A   Mostly Cloudy
7:53 PM 39.9°F 35.1°F 83% 29.88 in 10.0 miles SSE 3.5 mph - N/A   Overcast
8:12 PM 39.2°F 35.6°F 87% 29.87 in 10.0 miles Calm Calm - N/A   Overcast
8:53 PM 39.9°F 35.1°F 83% 29.88 in 10.0 miles Calm Calm - N/A   Overcast
10:53 PM 39.9°F 35.1°F 83% 29.87 in 10.0 miles Calm Calm - N/A   Overcast
11:53 PM 39.9°F 36.0°F 86% 29.86 in 10.0 miles SE 3.5 mph - 0.00 in Rain Light Rain
Moon Phase
Dec. 13 Dec. 20 Dec. 28 Jan. 04 Jan. 11
Sunrise:07:43 AM (PST) Moon Rise:07:56 AM (PST)12/13
Sunset:04:26 PM (PST) Moon Set:05:17 PM (PST)12/13

Copyright © 2014 The Weather Underground, Inc.